Charlottesville, VA

11:26 PM EDT on July 24, 2017 (GMT -0400)
Charlottesville-Albemarle

Weather History for KCHO - April, 2013

Change the Weather History Date:

Wednesday, April 24, 2013

  Actual Average Record
Temperature  
Mean Temperature 60 °F 58 °F  
Max Temperature 77 °F 70 °F 98 °F (1925)
Min Temperature 43 °F 45 °F 31 °F (2002)
Degree Days  
Heating Degree Days 5 8  
Month to date heating degree days 215 264  
Since 1 July heating degree days 4006 4268  
Cooling Degree Days 0 1  
Month to date cooling degree days 44 16  
Year to date cooling degree days 44 18  
Growing Degree Days 10 (Base 50)    
Moisture  
Dew Point 48 °F    
Average Humidity 67    
Maximum Humidity 96    
Minimum Humidity 38    
Precipitation  
Precipitation 0.08 in 0.12 in 2.52 in (1983)
Month to date precipitation 2.64 2.74  
Year to date precipitation 11.90 11.87  
Sea Level Pressure  
Sea Level Pressure 29.97 in    
Wind  
Wind Speed 9 mph (SW)    
Max Wind Speed 25 mph    
Max Gust Speed 37 mph    
Visibility 10 miles    
Events Rain    
T = Trace of Precipitation, MM = Missing Value Source: NWS Daily Summary

Daily Weather History Graph

Daily Weather History Graph

Search for Another Location

Airport or City:

Trip Planner

Search our weather history database for the weather conditions in past years. The results will help you decide how hot, cold, wet, or windy it might be!

Date:

Astronomy

Apr. 24, 2013 Rise Set
Actual Time 6:25 AM EDT 7:58 PM EDT
Civil Twilight 5:57 AM EDT 8:26 PM EDT
Nautical Twilight 5:24 AM EDT 9:00 PM EDT
Astronomical Twilight 4:49 AM EDT 9:35 PM EDT
Moon 7:00 PM EDT (4/24) 5:27 AM EDT (4/24)
Length of Visible Light 14h 28m
Length of Day
13h 32m
Waxing Gibbous, 98% of the Moon is Illuminated
Apr 24
Waxing Gibbous
Apr 25
Full
May 2
Last Quarter
May 9
New
May 18
First Quarter

Hourly Weather History & Observations

Time (EDT) Temp. Windchill Dew Point Humidity Pressure Visibility Wind Dir Wind Speed Gust Speed Precip Events Conditions
12:53 AM 48.0 °F - 43.0 °F 83% 30.12 in 10.0 mi Calm Calm - N/A   Clear
1:53 AM 46.9 °F - 43.0 °F 86% 30.10 in 10.0 mi Calm Calm - N/A   Clear
2:53 AM 43.0 °F - 41.0 °F 93% 30.08 in 8.0 mi Calm Calm - N/A   Partly Cloudy
3:53 AM 45.0 °F - 42.1 °F 90% 30.06 in 9.0 mi Calm Calm - N/A   Clear
4:53 AM 45.0 °F 42.6 °F 42.1 °F 90% 30.05 in 10.0 mi WSW 4.6 mph - N/A   Clear
6:53 AM 44.1 °F - 42.1 °F 93% 30.06 in 8.0 mi Calm Calm - N/A   Clear
7:53 AM 46.9 °F - 45.0 °F 93% 30.06 in 8.0 mi SW 4.6 mph - N/A   Clear
8:53 AM 53.1 °F - 46.9 °F 80% 30.04 in 10.0 mi South 8.1 mph - N/A   Clear
9:53 AM 57.9 °F - 48.9 °F 72% 30.01 in 10.0 mi South 8.1 mph - N/A   Clear
10:53 AM 64.9 °F - 51.1 °F 61% 30.00 in 10.0 mi SSW 13.8 mph 20.7 mph N/A   Clear
11:53 AM 69.1 °F - 52.0 °F 54% 29.96 in 10.0 mi South 8.1 mph 19.6 mph N/A   Clear
12:53 PM 73.0 °F - 51.1 °F 46% 29.93 in 10.0 mi South 18.4 mph 23.0 mph N/A   Clear
1:53 PM 75.0 °F - 52.0 °F 44% 29.91 in 10.0 mi SSW 16.1 mph 24.2 mph N/A   Clear
2:53 PM 77.0 °F - 51.1 °F 40% 29.88 in 10.0 mi WSW 16.1 mph 27.6 mph N/A   Clear
3:53 PM 75.0 °F - 48.9 °F 40% 29.86 in 10.0 mi SW 19.6 mph 27.6 mph N/A   Clear
4:53 PM 75.0 °F - 48.9 °F 40% 29.84 in 10.0 mi SW 16.1 mph 27.6 mph N/A   Clear
5:53 PM 75.0 °F - 48.9 °F 40% 29.82 in 10.0 mi SSW 18.4 mph 29.9 mph N/A   Clear
6:53 PM 72.0 °F - 50.0 °F 46% 29.86 in 10.0 mi SSW 13.8 mph 28.8 mph N/A   Clear
7:53 PM 66.0 °F - 55.9 °F 70% 29.88 in 10.0 mi SSW 6.9 mph - 0.01 in Rain Light Rain
8:53 PM 66.9 °F - 54.0 °F 63% 29.90 in 10.0 mi SSW 8.1 mph - N/A   Mostly Cloudy
9:53 PM 64.9 °F - 54.0 °F 68% 29.91 in 10.0 mi SSW 8.1 mph - N/A   Clear
10:53 PM 64.0 °F - 54.0 °F 70% 29.93 in 10.0 mi Calm Calm - N/A   Overcast
11:53 PM 59.0 °F - 48.0 °F 67% 29.98 in 10.0 mi NNW 11.5 mph 18.4 mph 0.07 in   Overcast